Location: Lafig�re
(44.4503°N, 4.0357°E)
Time: 14:22:17
(UTC+00:00)

Vanguard 2 Rocket - Pass Details

Date: 24 June 2021
Orbit: 555 x 3325 km, 32.9° (Epoch: 28 July)

Event Time Altitude Azimuth Distance (km) Brightness Sun altitude
Rises 00:50:54 0° 275° (W) 6,432 11.1 -20.5°
Reaches altitude 10° 00:59:03 10° 252° (WSW) 4,708 10.2 -20.1°
Enters shadow 01:01:52 12° 240° (WSW) 4,245 9.9 -20.0°
